Location: La Brionne
(46.1728°N, 1.7849°E)
Time: 06:37:25
(UTC+00:00)

Cosmos 1726 Rocket - Pass Details

Date: 16 June 2021
Orbit: 602 x 630 km, 82.5° (Epoch: 02 August)

Event Time Altitude Azimuth Distance (km) Brightness Sun altitude
Rises 23:27:58 0° 344° (NNW) 2,934 8.6 -20.2°
Reaches altitude 10° 23:30:18 10° 337° (NNW) 2,020 7.3 -20.2°
Maximum altitude 23:34:30 41° 268° (W) 915 4.4 -20.3°
Enters shadow 23:35:39 34° 231° (SW) 1,039 4.4 -20.3°
